Regional Weather Roundup
Issued by NWS Charleston, SC

Current Version | Previous Version | Text Only | Print | Product List | Glossary On
Versions: 1 2 3 4 5 6 7 8 9 10 11 12 13 14 15 16 17 18 19 20 21 22 23 24 25 26 27 28 29 30 31 32 33 34 35 36 37 38 39 40 41 42 43 44 45 46 47 48 49 50
000 ASUS42 KCHS 310528 RWRCHS REGIONAL WEATHER ROUNDUP NATIONAL WEATHER SERVICE CHARLESTON SC 100 AM EDT WED AUG 31 2016 NOTE: "FAIR" INDICATES FEW OR NO CLOUDS BELOW 12,000 FEET WITH NO SIGNIFICANT WEATHER AND/OR OBSTRUCTIONS TO VISIBILITY. NOT ALL STATIONS ARE QUALITY CONTROLLED. USE DATA WITH CAUTION... ESPECIALLY DEWPOINT OBSERVATIONS. SCZ027-030-031-034>040-042>050-310600- ...SOUTHEAST SOUTH CAROLINA... CITY SKY/WX TMP DP RH WIND PRES REMARKS N CHARLESTON PTCLDY 75 71 87 CALM 30.00S WATERFRONT PRK N/A 82 77 84 SE7 29.97F HX 90 MOUNT PLEASANT FAIR 73 73 100 CALM 30.00S JOHNS ISLAND FAIR 75 73 94 CALM 29.99F PINOPOLIS N/A 77 73 88 CALM 29.94S MONCKS CORNER FAIR 72 70 94 CALM 30.00F SUMMERVILLE FAIR 72 72 100 CALM 30.01S BEAUFORT MCAS PTCLDY 79 75 87 SE5 29.99S BEAUFORT ARPT FAIR 77 73 88 SE3 29.98F HILTON HEAD IS PTCLDY 79 73 83 VRB5 29.99F WALTERBORO CLEAR 73 73 100 CALM 30.01S ALLENDALE FAIR 73 72 94 CALM 30.00S ...SOUTHERN MIDLANDS AND PEE DEE... CITY SKY/WX TMP DP RH WIND PRES REMARKS GEORGETOWN FAIR 72 72 100 CALM 30.01S KINGSTREE MOCLDY 70 64 83 CALM 30.01S ORANGEBURG CLEAR 73 71 93 CALM 30.02S BARNWELL NOT AVBL AIKEN FAIR 72 70 94 CALM 30.06R MANNING FAIR 72 68 88 CALM 30.01F COLUMBIA PTCLDY 75 69 81 CALM 30.01S SUMTER CLOUDY 75 67 75 CALM 30.00S FLORENCE MOCLDY 75 66 73 CALM 30.02S MYRTLE BEACH MOCLDY 79 70 73 CALM 30.03S N MYRTLE BEACH MOCLDY 78 76 93 CALM 30.01S $$ GAZ063-065-086>088-099>101-113>116-118-119-134>141-150-310600- ...SOUTHEAST GEORGIA... CITY SKY/WX TMP DP RH WIND PRES REMARKS SAVANNAH ARPT MOCLDY 78 72 81 SE9 29.99S HUNTER AAF PTCLDY 78 75 91 E7 29.95F FORT STEWART MOCLDY 75 73 92 N1 29.95F STATESBORO CLEAR 73 73 98 CALM 29.99F SYLVANIA NOT AVBL CLAXTON FAIR 75 75 100 NE6 29.98F ...CSRA...CENTRAL AND FAR SOUTHEAST GEORGIA... CITY SKY/WX TMP DP RH WIND PRES REMARKS THOMSON CLEAR 74 74 98 CALM 30.06S AUGUSTA-BUSH CLEAR 73 73 100 CALM 30.00S FOG AUGUSTA-DANIEL CLEAR 78 71 79 SE3 30.02S SWAINSBORO FAIR 75 72 88 E5 30.01S VIDALIA CLEAR 77 75 94 E5 29.99S EASTMAN FAIR 74 74 100 CALM 30.01S FOG HAZLEHURST FAIR 77 75 93 CALM 29.96F ALMA PTCLDY 74 71 91 CALM 29.96F WAYCROSS N/A 78 76 94 E8 29.94F JESUP CLOUDY 77 77 100 E7 29.95F BAXLEY FAIR 77 77 100 E6 29.96F BRUNSWICK LGT RAIN 77 77 100 E9G16 29.94F SAINT SIMONS LGT RAIN 77 75 93 E12 29.92F $$ SCZ027-028-034-036>038-045-046-048>050-GAZ119-141-310600- ...LAKE AND SUPPLEMENTAL COASTAL OBSERVATIONS... STATION/POSITION TIME TEMP WIND PRES WAVE SWELL AIR SEA DIR/SP/G HT/PER HT/PER/DIR (UTC) (F) (DEG/KT/KT) (MB) (FT/S) (FT/S/D) WINYAH BAY 0400 77 310/ 1 1015.0 LAKE MURRAY 0400 82 120/ 2/ 4 1015.9S ACE BASIN NERRS 0400 76 CALM 1016.0S FORT PULASKI 0500 80 85 110/ 8/ 11 1015.5F SAPELO ISLAND 0500 78 70/ 9 1014.0F $$ ANZ835-935-AMZ111-154-330-350-352-354-370-450-454-472-310600- ...C-MAN AND BUOY OBSERVATIONS... STATION/POSITION TIME TEMP WIND PRES WAVE SWELL AIR SEA DIR/SP/G HT/PER HT/PER/DIR (UTC) (F) (DEG/KT/KT) (MB) (FT/S) (FT/S/D) BUOY 41004 0450 83 85 130/ 6/ 8 1015.2F 4/11 3/100/11 BUOY 41008 0450 81 85 90/ 19/ 25 1013.4F 5/ 5 2/100/11 FOLLY BEACH CMAN 0500 82 140/ 9/ 10 1015.9F CAPERS NEARSHORE 0508 82 83 130/ 8/ 10 1015.6F FRIPP NEARSHORE 0508 81 85 140/ 16/ 19 1014.8S STATION/POSITION TIME TEMP WIND PRES WAVE SWELL AIR SEA DIR/SP/G HT/PER HT/PER/DIR (UTC) (F) (DEG/KT/KT) (MB) (FT/S) (FT/S/D) 5E ST. MARYS GA 0501 85 N/A 6/ 6 2/100/12 FRYING PAN BUOY 0500 82 84 180/ 2/ 4 1015.6F BUOY 41025 0450 81 84 80/ 6/ 8 1014.4F 5/11 5/100/11 CAPE LOOKOUT NC 0500 79 350/ 5/ 6 1014.9F BUOY 41002 0450 83 83 200/ 14/ 16 1016.3R 4/11 3/ 40/11 BUOY 41010 NOT AVBL ST AUGUSTINE FL 0500 76 83 200/ 8/ 9 1013.4F $$

USA.gov is the U.S. government's official web portal to all federal, state and local government web resources and services.